Fort Drum, NY

12:35 AM EDT on October 18, 2017 (GMT -0400)
Wheeler-Sack Army Air Field

Weather History for KGTB - January, 2014

Change the Weather History Date:

Monday, January 6, 2014

  Actual Average Record
Temperature  
Mean Temperature 28 °F -  
Max Temperature 46 °F 26 °F 55 °F (2007)
Min Temperature 10 °F 11 °F 1 °F (2017)
Degree Days  
Heating Degree Days 37    
Moisture  
Dew Point 26 °F    
Average Humidity 92    
Maximum Humidity 100    
Minimum Humidity 68    
Precipitation  
Precipitation 0.00 in - - ()
Sea Level Pressure  
Sea Level Pressure 29.44 in    
Wind  
Wind Speed 18 mph (SW)    
Max Wind Speed 31 mph    
Max Gust Speed 46 mph    
Visibility 5 miles    
Events Fog , Rain , Snow    
Averages and records for this station are not official NWS values.
T = Trace of Precipitation, MM = Missing Value Source: NWS Daily Summary

Daily Weather History Graph

Daily Weather History Graph

Search for Another Location

Airport or City:

Trip Planner

Search our weather history database for the weather conditions in past years. The results will help you decide how hot, cold, wet, or windy it might be!

Date:

Astronomy

Jan. 06, 2014 Rise Set
Actual Time 7:37 AM EST 4:40 PM EST
Civil Twilight 7:04 AM EST 5:12 PM EST
Nautical Twilight 6:28 AM EST 5:49 PM EST
Astronomical Twilight 5:53 AM EST 6:24 PM EST
Moon 10:38 AM EST (1/6) 11:25 PM EST (1/6)
Length of Visible Light 10h 08m
Length of Day
9h 02m
Waxing Crescent, 34% of the Moon is Illuminated
Jan 6
Waxing Crescent
Jan 7
First Quarter
Jan 15
Full
Jan 24
Last Quarter
Jan 30
New

Hourly Weather History & Observations

Time (EST) Temp. Windchill Dew Point Humidity Pressure Visibility Wind Dir Wind Speed Gust Speed Precip Events Conditions
12:08 AM 41.0 °F 32.8 °F 39.2 °F 93% 29.46 in 9.0 mi SE 16.1 mph - N/A   Overcast
12:18 AM 41.0 °F 32.5 °F 39.2 °F 93% 29.45 in 10.0 mi SE 17.3 mph - N/A   Overcast
12:21 AM 41.0 °F 32.8 °F 39.2 °F 93% 29.45 in 10.0 mi SE 16.1 mph - N/A   Overcast
12:36 AM 41.0 °F 31.9 °F 41.0 °F 100% 29.43 in 10.0 mi SE 19.6 mph - N/A   Overcast
12:41 AM 41.0 °F 32.8 °F 41.0 °F 100% 29.43 in 10.0 mi SE 16.1 mph - N/A   Overcast
12:58 AM 41.2 °F 33.0 °F 41.0 °F 99% 29.44 in 10.0 mi SSE 16.1 mph 23.0 mph 0.00 in   Overcast
1:48 AM 44.6 °F 37.2 °F 42.8 °F 93% 29.39 in 10.0 mi SE 17.3 mph 32.2 mph N/A   Mostly Cloudy
1:58 AM 42.8 °F 35.4 °F 42.8 °F 100% 29.40 in 10.0 mi SE 15.0 mph - N/A   Mostly Cloudy
2:42 AM 42.8 °F 35.1 °F 41.0 °F 93% 29.34 in 10.0 mi SE 16.1 mph - N/A Rain Light Rain
2:58 AM 41.9 °F 35.0 °F 41.9 °F 100% 29.35 in 10.0 mi SSE 12.7 mph - 0.00 in Rain Light Rain
2:59 AM 41.0 °F 33.9 °F 41.0 °F 100% 29.33 in 10.0 mi SE 12.7 mph - N/A   Overcast
3:00 AM 41.0 °F 33.9 °F 41.0 °F 100% 29.33 in 10.0 mi SE 12.7 mph - N/A Rain Light Rain
3:15 AM 42.8 °F 35.4 °F 42.8 °F 100% 29.29 in 10.0 mi SE 15.0 mph - N/A   Light Drizzle
3:19 AM 42.8 °F 35.4 °F 42.8 °F 100% 29.30 in 10.0 mi SE 15.0 mph - N/A   Mostly Cloudy
3:49 AM 42.8 °F 35.8 °F 42.8 °F 100% 29.25 in 10.0 mi SE 13.8 mph 25.3 mph N/A   Overcast
3:58 AM 43.5 °F 37.5 °F 43.5 °F 100% 29.27 in 10.0 mi South 11.5 mph - 0.00 in   Overcast
4:00 AM 42.8 °F 37.0 °F 42.8 °F 100% 29.25 in 10.0 mi South 10.4 mph - N/A Rain Light Rain
4:22 AM 44.6 °F 36.4 °F 44.6 °F 100% 29.25 in 10.0 mi South 20.7 mph - N/A   Overcast
4:32 AM 44.6 °F 36.9 °F 44.6 °F 100% 29.25 in 10.0 mi South 18.4 mph - N/A Rain Light Rain
4:37 AM 44.6 °F 36.9 °F 44.6 °F 100% 29.24 in 9.0 mi South 18.4 mph - N/A Rain Rain
4:56 AM 44.6 °F 36.6 °F 44.6 °F 100% 29.22 in 10.0 mi South 19.6 mph - N/A   Overcast
4:58 AM 44.6 °F 36.6 °F 44.6 °F 100% 29.23 in 10.0 mi South 19.6 mph - 0.00 in   Overcast
5:25 AM 44.6 °F 36.9 °F 44.6 °F 100% 29.21 in 10.0 mi South 18.4 mph - N/A Rain Light Rain
5:29 AM 44.6 °F 37.2 °F 44.6 °F 100% 29.20 in 10.0 mi South 17.3 mph - N/A   Overcast
5:31 AM 44.6 °F 37.2 °F 44.6 °F 100% 29.20 in 10.0 mi South 17.3 mph - N/A Rain Light Rain
5:53 AM 44.6 °F 36.4 °F 44.6 °F 100% 29.20 in 10.0 mi South 20.7 mph - N/A   Overcast
5:58 AM 45.3 °F 37.3 °F 45.0 °F 99% 29.22 in 10.0 mi South 20.7 mph - 0.00 in   Overcast
6:04 AM 44.6 °F 36.6 °F 44.6 °F 100% 29.20 in 10.0 mi SSW 19.6 mph - N/A Rain Light Rain
6:14 AM 44.6 °F 35.3 °F 44.6 °F 100% 29.20 in 9.0 mi SSW 26.5 mph 36.8 mph N/A   Overcast
6:20 AM 46.4 °F 38.5 °F 46.4 °F 100% 29.21 in 9.0 mi SSW 21.9 mph 36.8 mph N/A Rain Light Rain
6:40 AM 46.4 °F 39.8 °F 46.4 °F 100% 29.22 in 10.0 mi SW 16.1 mph 31.1 mph N/A Rain Light Rain
6:50 AM 46.4 °F 39.0 °F 46.4 °F 100% 29.23 in 10.0 mi SW 19.6 mph 29.9 mph N/A Rain Light Rain
6:55 AM 46.4 °F 39.2 °F 44.6 °F 93% 29.23 in 10.0 mi SW 18.4 mph 29.9 mph N/A Rain Light Rain
6:58 AM 46.4 °F 39.0 °F 44.6 °F 93% 29.24 in 10.0 mi SW 19.6 mph 29.9 mph 0.00 in Rain Light Rain
7:08 AM 46.4 °F 39.8 °F 44.6 °F 93% 29.24 in 9.0 mi SW 16.1 mph 41.4 mph N/A Rain Light Rain
7:48 AM 42.8 °F 34.0 °F 42.8 °F 100% 29.26 in 10.0 mi WSW 20.7 mph 31.1 mph N/A Rain Light Rain
7:58 AM 43.2 °F 32.6 °F 42.1 °F 96% 29.28 in 5.0 mi West 31.1 mph 41.4 mph 0.00 in Rain Rain
8:13 AM 37.4 °F 27.5 °F 35.6 °F 93% 29.30 in 8.0 mi WSW 18.4 mph 36.8 mph N/A Rain Light Rain
8:20 AM 35.6 °F 22.5 °F 35.6 °F 100% 29.31 in 10.0 mi WSW 29.9 mph 41.4 mph N/A   Squalls
8:25 AM 35.6 °F 23.4 °F 33.8 °F 93% 29.32 in 9.0 mi WSW 25.3 mph 41.4 mph N/A   Overcast
8:35 AM 33.8 °F 20.3 °F 33.8 °F 100% 29.35 in 2.5 mi WSW 28.8 mph 39.1 mph N/A Snow Light Snow
8:40 AM 33.8 °F 20.3 °F 32.0 °F 93% 29.33 in 1.5 mi West 28.8 mph 40.3 mph N/A Snow Light Snow
8:45 AM 32.0 °F 19.8 °F 32.0 °F 100% 29.32 in 1.2 mi WSW 20.7 mph 40.3 mph N/A Snow Light Snow
8:50 AM 32.0 °F 19.5 °F 32.0 °F 100% 29.33 in 1.0 mi West 21.9 mph 40.3 mph N/A Snow Light Snow
8:55 AM 32.0 °F 17.6 °F 32.0 °F 100% 29.33 in 0.8 mi WSW 29.9 mph 35.7 mph N/A Snow Light Snow
8:58 AM 32.0 °F 17.9 °F 32.0 °F 100% 29.36 in 0.8 mi WSW 28.8 mph 41.4 mph 0.00 in Snow Light Snow
9:03 AM 32.0 °F 19.8 °F 32.0 °F 100% 29.36 in 0.5 mi WSW 20.7 mph 41.4 mph N/A Fog , Snow Snow
9:08 AM 32.0 °F 18.6 °F 32.0 °F 100% 29.37 in 0.5 mi WSW 25.3 mph 35.7 mph N/A Fog , Snow Light Freezing Fog
9:18 AM 32.0 °F 20.1 °F 32.0 °F 100% 29.37 in 0.8 mi WSW 19.6 mph 36.8 mph N/A Snow Light Snow
9:23 AM 32.0 °F 18.1 °F 32.0 °F 100% 29.38 in 1.5 mi WSW 27.6 mph 46.0 mph N/A Snow Light Snow
9:28 AM 32.0 °F 18.9 °F 32.0 °F 100% 29.37 in 3.0 mi West 24.2 mph 46.0 mph N/A Snow Light Snow
9:45 AM 32.0 °F 18.6 °F 30.2 °F 93% 29.39 in 10.0 mi WSW 25.3 mph 40.3 mph N/A   Overcast
9:51 AM 32.0 °F 19.8 °F 30.2 °F 93% 29.39 in 10.0 mi WSW 20.7 mph 40.3 mph N/A   Overcast
9:58 AM 31.6 °F 19.7 °F 29.8 °F 93% 29.44 in 10.0 mi WSW 19.6 mph 36.8 mph 0.00 in   Overcast
10:58 AM 28.4 °F 15.8 °F 26.6 °F 93% 29.46 in 2.0 mi West 18.4 mph 34.5 mph 0.00 in Snow Light Snow
11:03 AM 28.4 °F 17.5 °F 26.6 °F 93% 29.44 in 2.0 mi West 13.8 mph 34.5 mph N/A Snow Light Snow
11:13 AM 28.4 °F 16.6 °F 26.6 °F 93% 29.43 in 1.8 mi WSW 16.1 mph 33.4 mph N/A Snow Light Snow
11:28 AM 26.6 °F 14.3 °F 24.8 °F 93% 29.44 in 2.5 mi West 16.1 mph 28.8 mph N/A Snow Light Snow
11:43 AM 26.6 °F 13.4 °F 24.8 °F 93% 29.44 in 2.0 mi West 18.4 mph 35.7 mph N/A Snow Light Snow
11:53 AM 26.6 °F 14.3 °F 23.0 °F 86% 29.44 in 2.0 mi West 16.1 mph 33.4 mph N/A Snow Light Snow
11:58 AM 26.2 °F 14.7 °F 23.7 °F 90% 29.46 in 2.0 mi WSW 13.8 mph 33.4 mph 0.00 in Snow Light Snow
12:23 PM 26.6 °F 12.0 °F 23.0 °F 86% 29.44 in 1.5 mi West 23.0 mph 38.0 mph N/A Snow Light Snow
12:38 PM 24.8 °F 11.5 °F 23.0 °F 93% 29.44 in 1.5 mi WSW 17.3 mph 29.9 mph N/A Snow Light Snow
12:58 PM 24.8 °F 10.3 °F 23.0 °F 93% 29.47 in 1.5 mi WSW 20.7 mph 34.5 mph 0.00 in Snow Light Snow
1:13 PM 24.8 °F 9.6 °F 21.2 °F 86% 29.45 in 2.0 mi West 23.0 mph 32.2 mph N/A Snow Light Snow
1:18 PM 24.8 °F 10.0 °F 21.2 °F 86% 29.46 in 4.0 mi WSW 21.9 mph 32.2 mph N/A Snow Light Snow
1:58 PM 25.9 °F 13.8 °F 19.4 °F 76% 29.48 in 10.0 mi WSW 15.0 mph 28.8 mph 0.00 in   Mostly Cloudy
1:59 PM 26.6 °F 13.1 °F 19.4 °F 74% 29.47 in 10.0 mi West 19.6 mph 32.2 mph N/A   Mostly Cloudy
2:09 PM 24.8 °F 11.9 °F 17.6 °F 74% 29.47 in 10.0 mi West 16.1 mph 33.4 mph N/A   Scattered Clouds
2:19 PM 26.6 °F 13.4 °F 17.6 °F 69% 29.47 in 10.0 mi West 18.4 mph 29.9 mph N/A   Mostly Cloudy
2:29 PM 24.8 °F 10.3 °F 17.6 °F 74% 29.47 in 10.0 mi West 20.7 mph 31.1 mph N/A   Scattered Clouds
2:58 PM 25.3 °F 11.8 °F 16.2 °F 68% 29.51 in 10.0 mi West 18.4 mph 31.1 mph 0.00 in   Clear
3:58 PM 24.4 °F 12.4 °F 15.1 °F 68% 29.52 in 10.0 mi West 13.8 mph 31.1 mph N/A   Mostly Cloudy
4:14 PM 24.8 °F 13.4 °F 15.8 °F 69% 29.51 in 10.0 mi West 12.7 mph 24.2 mph N/A Snow Light Snow
4:19 PM 23.0 °F 11.7 °F 17.6 °F 80% 29.51 in 10.0 mi West 11.5 mph 19.6 mph N/A Snow Light Snow
4:39 PM 23.0 °F 8.3 °F 19.4 °F 86% 29.51 in 8.0 mi West 19.6 mph 33.4 mph N/A Snow Light Snow
4:44 PM 23.0 °F 9.6 °F 19.4 °F 86% 29.51 in 8.0 mi West 16.1 mph 27.6 mph N/A Snow Light Snow
4:58 PM 22.8 °F 9.9 °F 19.0 °F 85% 29.53 in 8.0 mi West 15.0 mph 20.7 mph 0.00 in Snow Light Snow
5:03 PM 23.0 °F 9.2 °F 19.4 °F 86% 29.51 in 2.5 mi West 17.3 mph 26.5 mph N/A Snow Light Snow
5:08 PM 23.0 °F 10.6 °F 19.4 °F 86% 29.51 in 1.8 mi West 13.8 mph 26.5 mph N/A Snow Light Snow
5:13 PM 23.0 °F 11.1 °F 19.4 °F 86% 29.51 in 3.0 mi WSW 12.7 mph 21.9 mph N/A Snow Light Snow
5:33 PM 23.0 °F 9.6 °F 19.4 °F 86% 29.51 in 1.8 mi WSW 16.1 mph 27.6 mph N/A Snow Light Snow
5:38 PM 21.2 °F 7.3 °F 19.4 °F 93% 29.52 in 0.8 mi West 16.1 mph 27.6 mph N/A Snow Light Snow
5:48 PM 21.2 °F 7.8 °F 19.4 °F 93% 29.51 in 0.5 mi West 15.0 mph 24.2 mph N/A Fog , Snow Light Freezing Fog
5:58 PM 21.4 °F 7.5 °F 20.1 °F 95% 29.53 in 1.0 mi WSW 16.1 mph 27.6 mph 0.00 in Snow Light Snow
6:03 PM 21.2 °F 6.0 °F 19.4 °F 93% 29.51 in 1.2 mi WSW 19.6 mph 29.9 mph N/A Snow Light Snow
6:08 PM 21.2 °F 6.0 °F 19.4 °F 93% 29.52 in 1.2 mi WSW 19.6 mph 29.9 mph N/A Snow Light Snow
6:13 PM 21.2 °F 7.3 °F 19.4 °F 93% 29.52 in 1.5 mi West 16.1 mph 29.9 mph N/A Snow Light Snow
6:18 PM 21.2 °F 6.4 °F 19.4 °F 93% 29.52 in 2.0 mi West 18.4 mph 28.8 mph N/A Snow Light Snow
6:28 PM 21.2 °F 7.3 °F 17.6 °F 86% 29.53 in 4.0 mi West 16.1 mph 31.1 mph N/A   Overcast
6:38 PM 21.2 °F 7.3 °F 15.8 °F 80% 29.54 in 1.8 mi West 16.1 mph 34.5 mph N/A Snow Light Snow
6:43 PM 21.2 °F 6.0 °F 17.6 °F 86% 29.55 in 1.0 mi West 19.6 mph 34.5 mph N/A Snow Light Snow
6:53 PM 19.4 °F 2.5 °F 17.6 °F 93% 29.54 in 0.8 mi West 23.0 mph 33.4 mph N/A Snow Light Snow
6:58 PM 19.4 °F 3.2 °F 17.6 °F 93% 29.57 in 0.5 mi West 20.7 mph 33.4 mph 0.00 in Fog , Snow Light Freezing Fog
7:08 PM 19.4 °F 6.0 °F 17.6 °F 93% 29.56 in 0.5 mi West 13.8 mph 31.1 mph N/A Fog , Snow Light Freezing Fog
7:13 PM 19.4 °F 4.1 °F 17.6 °F 93% 29.56 in 0.2 mi West 18.4 mph 31.1 mph N/A Fog , Snow Heavy Freezing Fog
7:18 PM 17.6 °F 3.2 °F 17.6 °F 100% 29.56 in 0.5 mi West 15.0 mph 32.2 mph N/A Fog , Snow Light Freezing Fog
7:48 PM 17.6 °F 0.1 °F 15.8 °F 93% 29.57 in 0.5 mi WSW 23.0 mph 39.1 mph N/A Fog , Snow Light Freezing Fog
7:58 PM 16.7 °F -1.1 °F 14.7 °F 92% 29.60 in 0.5 mi WSW 23.0 mph 34.5 mph 0.00 in Fog , Snow Light Freezing Fog
8:13 PM 15.8 °F -1.9 °F 14.0 °F 93% 29.58 in 0.2 mi WSW 21.9 mph 39.1 mph N/A Fog , Snow Light Freezing Fog
8:18 PM 15.8 °F -1.1 °F 14.0 °F 93% 29.58 in 0.5 mi West 19.6 mph 39.1 mph N/A Fog , Snow Light Freezing Fog
8:28 PM 15.8 °F -1.1 °F 14.0 °F 93% 29.58 in 0.8 mi WSW 19.6 mph 31.1 mph N/A Snow Light Snow
8:33 PM 15.8 °F -1.9 °F 12.2 °F 86% 29.58 in 0.5 mi WSW 21.9 mph 32.2 mph N/A Fog , Snow Light Freezing Fog
8:38 PM 14.0 °F -5.5 °F 12.2 °F 93% 29.58 in 0.5 mi WSW 25.3 mph 34.5 mph N/A Fog , Snow Light Freezing Fog
8:43 PM 14.0 °F -2.5 °F 12.2 °F 93% 29.59 in 0.5 mi WSW 17.3 mph 36.8 mph N/A Fog , Snow Light Freezing Fog
8:53 PM 14.0 °F -3.4 °F 12.2 °F 93% 29.59 in 0.8 mi WSW 19.6 mph 32.2 mph N/A Snow Light Snow
8:58 PM 14.0 °F -3.0 °F 12.2 °F 93% 29.62 in 0.5 mi WSW 18.4 mph 32.2 mph 0.00 in Fog , Snow Light Freezing Fog
9:23 PM 12.2 °F -4.8 °F 10.4 °F 92% 29.60 in 0.5 mi WSW 17.3 mph 34.5 mph N/A Fog , Snow Light Freezing Fog
9:28 PM 12.2 °F -6.3 °F 10.4 °F 92% 29.59 in 0.8 mi WSW 20.7 mph 34.5 mph N/A Snow Light Snow
9:33 PM 12.2 °F -6.3 °F 10.4 °F 92% 29.60 in 1.2 mi WSW 20.7 mph 31.1 mph N/A Snow Light Snow
9:48 PM 12.2 °F -7.1 °F 8.6 °F 85% 29.60 in 0.8 mi WSW 23.0 mph 32.2 mph N/A Snow Light Snow
9:58 PM 12.2 °F -7.1 °F 9.1 °F 88% 29.62 in 0.5 mi WSW 23.0 mph 33.4 mph 0.00 in Fog , Snow Light Freezing Fog
10:03 PM 12.2 °F -6.3 °F 8.6 °F 85% 29.59 in 0.5 mi WSW 20.7 mph 33.4 mph N/A Fog , Snow Light Freezing Fog
10:08 PM 12.2 °F -7.5 °F 8.6 °F 85% 29.60 in 0.5 mi WSW 24.2 mph 32.2 mph N/A Fog , Snow Light Freezing Fog
10:18 PM 12.2 °F -5.8 °F 8.6 °F 85% 29.60 in 0.8 mi WSW 19.6 mph 32.2 mph N/A Snow Light Snow
10:23 PM 12.2 °F -5.8 °F 8.6 °F 85% 29.60 in 0.8 mi SW 19.6 mph 27.6 mph N/A Snow Light Snow
10:28 PM 10.4 °F -8.6 °F 8.6 °F 92% 29.60 in 0.5 mi WSW 20.7 mph 26.5 mph N/A Fog , Snow Light Freezing Fog
10:58 PM 10.6 °F -7.4 °F 8.2 °F 90% 29.63 in 0.8 mi WSW 18.4 mph 32.2 mph 0.00 in Snow Light Snow
11:08 PM 10.4 °F -8.6 °F 8.6 °F 92% 29.58 in 0.5 mi WSW 20.7 mph 33.4 mph N/A Fog , Snow Light Freezing Fog
11:28 PM 10.4 °F -7.7 °F 6.8 °F 85% 29.58 in 0.8 mi SW 18.4 mph 33.4 mph N/A Snow Light Snow
11:33 PM 10.4 °F -7.7 °F 6.8 °F 85% 29.58 in 0.8 mi SW 18.4 mph 26.5 mph N/A Snow Light Snow
11:43 PM 10.4 °F -8.6 °F 6.8 °F 85% 29.58 in 0.8 mi SW 20.7 mph 31.1 mph N/A Snow Light Snow
11:48 PM 10.4 °F -8.6 °F 6.8 °F 85% 29.58 in 0.8 mi SW 20.7 mph 31.1 mph N/A Snow Light Snow
11:58 PM 10.0 °F -7.6 °F 7.3 °F 89% 29.63 in 0.5 mi SW 17.3 mph 25.3 mph 0.00 in Fog , Snow Light Freezing Fog